Regional Weather Roundup
Issued by NWS

Home | Current Version | Previous Version | Graphics & Text | Print | Product List | Glossary On
Versions: 1 2 3 4 5 6 7 8 9 10 11 12 13 14 15 16 17 18 19 20 21 22 23 24 25 26 27 28 29 30 31 32 33 34 35 36 37 38 39 40 41 42 43 44 45 46 47 48 49 50
000
ASUS43 KDMX 261101
RWRIA

WEATHER ROUNDUP FOR IOWA
NATIONAL WEATHER SERVICE DES MOINES IA
500 AM CST SUN FEB 26 2017

NOTE: "FAIR" INDICATES FEW OR NO CLOUDS BELOW 12,000 FEET WITH NO
SIGNIFICANT WEATHER AND/OR OBSTRUCTIONS TO VISIBILITY.

* - THESE STATIONS ARE NOT NWS STATIONS...THUS NOT UNDER NWS
QUALITY CONTROL.  THEY ALSO DO NOT REPORT WEATHER SUCH
AS PRECIPITATION OR FOG.

IAZ001>003-012>014-020>022-031>034-043>046-261200-
   NORTHWEST IOWA

CITY           SKY/WX    TMP DP  RH WIND       PRES   REMARKS
CARROLL *      CLEAR     27  23  86 SW14      29.82S WCI  15
CHEROKEE *     CLEAR     19  18  96 S9        29.79F WCI   9
DENISON *      CLEAR     23  21  93 SW6       29.81S WCI  16
LE MARS *      CLEAR     18  16  93 S7        29.81R WCI   8
SHELDON *      CLEAR     18  18 100 SW6       29.75S WCI   9
SIOUX CITY     CLEAR     20  13  74 W7        29.82S WCI  11
SPENCER        CLEAR     15  11  83 CALM      29.77S
STORM LAKE *   CLEAR     19  18  93 SW15      29.79S WCI   5
$$

IAZ055>058-069>071-079>083-090>094-261200-
   SOUTHWEST IOWA

CITY           SKY/WX    TMP DP  RH WIND       PRES   REMARKS
ATLANTIC *     CLEAR     25  21  86 SW7       29.86S WCI  17
AUDUBON *      CLEAR     27  21  80 SW7       29.84S WCI  19
CLARINDA *     CLOUDY    32  23  69 SW14      29.92S WCI  22
COUNCIL BLFS * CLEAR     28  23  80 SW9       29.86S WCI  20
CRESTON *      CLOUDY    30  21  69 SW15G22   29.88S WCI  19
HARLAN  *      CLEAR     23  21  93 SW8       29.88S WCI  14
LAMONI         CLEAR     29  16  58 SW18      29.90F WCI  16
RED OAK *      PTCLDY    30  23  74 SW8       29.89R WCI  23
SHENANDOAH *   PTCLDY    30  23  74 SW8       29.91S WCI  23
$$

IAZ047>049-059>061-072>074-084-261200-
   CENTRAL IOWA

CITY           SKY/WX    TMP DP  RH WIND       PRES   REMARKS
AMES           CLEAR     27  21  78 SW13      29.83S WCI  16
ANKENY *       PTCLDY    30  19  64 SW9G16    29.88R WCI  22
BOONE *        CLEAR     28  19  69 SW10      29.81F WCI  19
CHARITON *     CLEAR     30  18  59 SW14G20   29.89S WCI  20
DES MOINES     PTCLDY    31  19  61 W10       29.87R WCI  22
GRINNELL*      PTCLDY    29  19  67 S8        29.87S WCI  21
KNOXVILLE *    PTCLDY    32  16  51 SW18G24   29.85F WCI  20
MARSHALLTOWN   CLEAR     29  19  66 SW17      29.83S WCI  17
NEWTON *       MOCLDY    28  18  64 SW12      29.86R WCI  18
PELLA *        CLEAR     32  17  53 SW9       29.89F WCI  24
PERRY *          N/A     27  22  81 SW12      29.84S WCI  17
$$

IAZ004>006-015-016-023>025-035-036-261200-
   NORTH CENTRAL IOWA

CITY           SKY/WX    TMP DP  RH WIND       PRES   REMARKS
ALGONA *       CLEAR     14  12  92 S12       29.77S WCI   0
CLARION *      PTCLDY    23  19  86 SW12      29.80F WCI  12
ESTHERVILLE    CLEAR     18  15  88 SW14      29.75S WCI   4
FORT DODGE *   CLEAR     21  14  73 SW7       29.81S WCI  13
MASON CITY     CLEAR     22  15  75 SW9       29.79F WCI  12
FOREST CITY *    N/A     19  14  79 SW6       29.77F WCI  11
WEBSTER CITY * CLEAR     23  18  80 SW9       29.79S WCI  13
IOWA FALLS *     N/A     26  19  76 SW10      29.82S WCI  16
$$

IAZ007>011-017>019-026>030-037>042-050>054-066-261200-
   NORTHEAST IOWA

CITY           SKY/WX    TMP DP  RH WIND       PRES   REMARKS
CEDAR RAPIDS   CLOUDY    30  19  63 S18G29    29.87F WCI  18
CHARLES CITY * CLOUDY    27  21  80 S8        29.81S WCI  18
CLINTON *      CLOUDY    29  20  69 S16       29.95F WCI  17
DECORAH *      CLOUDY    27  19  74 S9G17     29.79F WCI  17
DUBUQUE        CLOUDY    27  19  72 S17       29.87F WCI  14
MONTICELLO *   CLOUDY    28  19  69 S15G22    29.88F WCI  17
OELWEIN *      CLOUDY    28  21  74 S14       29.83S WCI  17
WATERLOO       CLOUDY    29  19  66 S14       29.83S WCI  18
$$

IAZ064-065-067-068-078-261200-
   EAST CENTRAL IOWA

CITY           SKY/WX    TMP DP  RH WIND       PRES   REMARKS
DAVENPORT      CLOUDY    30  16  56 S17       29.95F WCI  18
IOWA CITY      CLOUDY    31  18  58 S14       29.93F WCI  21
MUSCATINE *    CLOUDY    32  18  55 S16       29.96F WCI  21
QUAD CITIES    CLOUDY    31  16  54 S12       29.96F WCI  22
$$

IAZ062-063-075>077-085>089-095>099-261200-
   SOUTHEAST IOWA

CITY           SKY/WX    TMP DP  RH WIND       PRES   REMARKS
BURLINGTON     MOCLDY    30  17  58 S13       29.99S WCI  20
FAIRFIELD *    CLOUDY    32  16  51 S16       29.93F WCI  21
KEOKUK *       CLOUDY    32  16  51 S15       29.99F WCI  22
CENTERVILLE *    N/A     30  16  55 S15G21    29.94S WCI  19
OTTUMWA        PTCLDY    30  16  56 S13       29.90F WCI  20
WASHINGTON *   CLOUDY    30  19  64 S18       29.94F WCI  18
$$

ABBREVIATIONS USED IN REMARKS
   TC - TEMPERATURES IN CELSIUS
  WCI - WIND CHILL INDEX
   HX - HEAT INDEX
  VSB - VISIBILITY
$$





USA.gov is the U.S. government's official web portal to all federal, state and local government web resources and services.